Time,TemperatureF,DewpointF,PressureIn,WindDirection,WindDirectionDegrees,WindSpeedMPH,WindSpeedGustMPH,Humidity,HourlyPrecipIn,Conditions,Clouds,dailyrainin,SoftwareType,DateUTC
2013-06-01 00:02:00,78.0,-99.9,30.02,SE,129,20.0,22.0,-999,-99.99,,,-99.99,,2013-06-01 05:02:00,
2013-06-01 00:12:00,78.0,-99.9,30.02,SE,129,20.0,22.0,-999,-99.99,,,-99.99,,2013-06-01 05:12:00,
2013-06-01 00:22:00,78.0,-99.9,30.01,ESE,122,19.0,22.0,-999,-99.99,,,-99.99,,2013-06-01 05:22:00,
2013-06-01 00:32:00,77.0,-99.9,30.00,SE,127,20.0,23.0,-999,-99.99,,,-99.99,,2013-06-01 05:32:00,
2013-06-01 00:43:00,78.0,-99.9,30.00,SE,127,18.0,22.0,-999,-99.99,,,-99.99,,2013-06-01 05:43:00,
2013-06-01 00:52:00,77.0,-99.9,30.01,ESE,120,20.0,21.0,-999,-99.99,,,-99.99,,2013-06-01 05:52:00,
2013-06-01 01:01:00,78.0,-99.9,30.01,SE,126,18.0,22.0,-999,-99.99,,,-99.99,,2013-06-01 06:01:00,
2013-06-01 01:12:00,78.0,-99.9,30.01,SE,127,19.0,22.0,-999,-99.99,,,-99.99,,2013-06-01 06:12:00,
2013-06-01 01:22:00,78.0,-99.9,30.01,SE,129,19.0,23.0,-999,-99.99,,,-99.99,,2013-06-01 06:22:00,
2013-06-01 01:32:00,78.0,-99.9,30.00,SE,131,19.0,25.0,-999,-99.99,,,-99.99,,2013-06-01 06:32:00,
2013-06-01 01:42:00,78.0,-99.9,30.00,SE,133,22.0,24.0,-999,-99.99,,,-99.99,,2013-06-01 06:42:00,
2013-06-01 01:52:00,78.0,-99.9,30.00,SE,131,20.0,23.0,-999,-99.99,,,-99.99,,2013-06-01 06:52:00,
2013-06-01 02:01:00,78.0,-99.9,30.00,SE,130,21.0,22.0,-999,-99.99,,,-99.99,,2013-06-01 07:01:00,
2013-06-01 02:11:00,78.0,-99.9,29.99,SE,128,21.0,22.0,-999,-99.99,,,-99.99,,2013-06-01 07:11:00,
2013-06-01 02:22:00,78.0,-99.9,29.99,SE,129,20.0,23.0,-999,-99.99,,,-99.99,,2013-06-01 07:22:00,
2013-06-01 02:32:00,78.0,-99.9,30.00,SE,135,18.0,22.0,-999,-99.99,,,-99.99,,2013-06-01 07:32:00,
2013-06-01 02:42:00,78.0,-99.9,30.00,SE,134,17.0,21.0,-999,-99.99,,,-99.99,,2013-06-01 07:42:00,
2013-06-01 02:52:00,78.0,-99.9,30.00,SE,134,17.0,20.0,-999,-99.99,,,-99.99,,2013-06-01 07:52:00,
2013-06-01 03:02:00,78.0,-99.9,30.00,SE,135,18.0,20.0,-999,-99.99,,,-99.99,,2013-06-01 08:02:00,
2013-06-01 03:11:00,78.0,-99.9,30.00,SE,142,18.0,19.0,-999,-99.99,,,-99.99,,2013-06-01 08:11:00,
2013-06-01 03:22:00,78.0,-99.9,30.00,SE,135,16.0,19.0,-999,-99.99,,,-99.99,,2013-06-01 08:22:00,
2013-06-01 03:32:00,78.0,-99.9,30.00,SE,137,16.0,19.0,-999,-99.99,,,-99.99,,2013-06-01 08:32:00,
2013-06-01 03:42:00,78.0,-99.9,30.00,SE,132,15.0,21.0,-999,-99.99,,,-99.99,,2013-06-01 08:42:00,
2013-06-01 03:52:00,78.0,-99.9,30.00,SE,135,16.0,19.0,-999,-99.99,,,-99.99,,2013-06-01 08:52:00,
2013-06-01 04:02:00,78.0,-99.9,29.99,SE,134,16.0,19.0,-999,-99.99,,,-99.99,,2013-06-01 09:02:00,
2013-06-01 04:12:00,78.0,-99.9,29.99,SE,133,17.0,19.0,-999,-99.99,,,-99.99,,2013-06-01 09:12:00,
2013-06-01 04:22:00,78.0,-99.9,29.99,SE,136,16.0,18.0,-999,-99.99,,,-99.99,,2013-06-01 09:22:00,
2013-06-01 04:33:00,78.0,-99.9,30.00,SE,130,13.0,17.0,-999,-99.99,,,-99.99,,2013-06-01 09:33:00,
2013-06-01 04:43:00,78.0,-99.9,30.00,SE,132,16.0,18.0,-999,-99.99,,,-99.99,,2013-06-01 09:43:00,
2013-06-01 04:53:00,78.0,-99.9,30.00,SE,132,15.0,18.0,-999,-99.99,,,-99.99,,2013-06-01 09:53:00,
2013-06-01 05:02:00,78.0,-99.9,29.99,SE,131,16.0,17.0,-999,-99.99,,,-99.99,,2013-06-01 10:02:00,
2013-06-01 05:13:00,78.0,-99.9,29.99,SE,127,17.0,18.0,-999,-99.99,,,-99.99,,2013-06-01 10:13:00,
2013-06-01 05:22:00,78.0,-99.9,30.00,SE,127,15.0,18.0,-999,-99.99,,,-99.99,,2013-06-01 10:22:00,
2013-06-01 05:33:00,78.0,-99.9,29.99,SE,128,16.0,18.0,-999,-99.99,,,-99.99,,2013-06-01 10:33:00,
2013-06-01 05:42:00,78.0,-99.9,29.99,SE,127,17.0,18.0,-999,-99.99,,,-99.99,,2013-06-01 10:42:00,
2013-06-01 05:53:00,78.0,-99.9,29.99,SE,129,16.0,18.0,-999,-99.99,,,-99.99,,2013-06-01 10:53:00,
2013-06-01 06:03:00,78.0,-99.9,29.99,SE,130,17.0,19.0,-999,-99.99,,,-99.99,,2013-06-01 11:03:00,
2013-06-01 06:11:00,78.0,-99.9,29.99,SE,130,16.0,19.0,-999,-99.99,,,-99.99,,2013-06-01 11:11:00,
2013-06-01 06:22:00,78.0,-99.9,29.99,SE,125,18.0,19.0,-999,-99.99,,,-99.99,,2013-06-01 11:22:00,
2013-06-01 06:33:00,78.0,-99.9,30.00,SE,128,17.0,19.0,-999,-99.99,,,-99.99,,2013-06-01 11:33:00,
2013-06-01 06:42:00,78.0,-99.9,30.00,SE,128,18.0,20.0,-999,-99.99,,,-99.99,,2013-06-01 11:42:00,
2013-06-01 06:52:00,78.0,-99.9,30.00,SE,128,17.0,19.0,-999,-99.99,,,-99.99,,2013-06-01 11:52:00,
2013-06-01 07:01:00,78.0,-99.9,30.00,SE,125,18.0,20.0,-999,-99.99,,,-99.99,,2013-06-01 12:01:00,
2013-06-01 07:12:00,78.0,-99.9,30.00,SE,128,17.0,20.0,-999,-99.99,,,-99.99,,2013-06-01 12:12:00,
2013-06-01 07:22:00,78.0,-99.9,30.00,SE,129,18.0,20.0,-999,-99.99,,,-99.99,,2013-06-01 12:22:00,
2013-06-01 07:32:00,78.0,-99.9,30.00,SE,128,19.0,21.0,-999,-99.99,,,-99.99,,2013-06-01 12:32:00,
2013-06-01 07:42:00,78.0,-99.9,30.00,SE,126,18.0,20.0,-999,-99.99,,,-99.99,,2013-06-01 12:42:00,
2013-06-01 07:52:00,78.0,-99.9,30.00,SE,129,17.0,20.0,-999,-99.99,,,-99.99,,2013-06-01 12:52:00,
2013-06-01 08:01:00,78.0,-99.9,30.01,SE,131,17.0,20.0,-999,-99.99,,,-99.99,,2013-06-01 13:01:00,
2013-06-01 08:12:00,78.0,-99.9,30.01,SE,124,18.0,20.0,-999,-99.99,,,-99.99,,2013-06-01 13:12:00,
2013-06-01 08:22:00,78.0,-99.9,30.01,ESE,123,18.0,20.0,-999,-99.99,,,-99.99,,2013-06-01 13:22:00,
2013-06-01 08:32:00,78.0,-99.9,30.01,ESE,120,18.0,20.0,-999,-99.99,,,-99.99,,2013-06-01 13:32:00,
2013-06-01 08:42:00,78.0,-99.9,30.01,SE,125,17.0,21.0,-999,-99.99,,,-99.99,,2013-06-01 13:42:00,
2013-06-01 08:52:00,78.0,-99.9,30.01,ESE,120,19.0,20.0,-999,-99.99,,,-99.99,,2013-06-01 13:52:00,
2013-06-01 09:02:00,78.0,-99.9,30.01,ESE,122,18.0,21.0,-999,-99.99,,,-99.99,,2013-06-01 14:02:00,
2013-06-01 09:11:00,78.0,-99.9,30.01,ESE,119,19.0,21.0,-999,-99.99,,,-99.99,,2013-06-01 14:11:00,
2013-06-01 09:22:00,78.0,-99.9,30.02,ESE,119,17.0,21.0,-999,-99.99,,,-99.99,,2013-06-01 14:22:00,
2013-06-01 09:32:00,78.0,-99.9,30.02,SE,125,19.0,21.0,-999,-99.99,,,-99.99,,2013-06-01 14:32:00,
2013-06-01 09:42:00,78.0,-99.9,30.02,ESE,121,19.0,21.0,-999,-99.99,,,-99.99,,2013-06-01 14:42:00,
2013-06-01 09:52:00,78.0,-99.9,30.02,SE,125,18.0,20.0,-999,-99.99,,,-99.99,,2013-06-01 14:52:00,
2013-06-01 10:02:00,78.0,-99.9,30.02,SE,127,17.0,19.0,-999,-99.99,,,-99.99,,2013-06-01 15:02:00,
2013-06-01 10:11:00,78.0,-99.9,30.02,SE,124,17.0,19.0,-999,-99.99,,,-99.99,,2013-06-01 15:11:00,
2013-06-01 10:22:00,78.0,-99.9,30.02,SE,125,17.0,20.0,-999,-99.99,,,-99.99,,2013-06-01 15:22:00,
2013-06-01 10:33:00,79.0,-99.9,30.03,SE,125,16.0,19.0,-999,-99.99,,,-99.99,,2013-06-01 15:33:00,
2013-06-01 10:43:00,78.0,-99.9,30.03,ESE,120,17.0,19.0,-999,-99.99,,,-99.99,,2013-06-01 15:43:00,
2013-06-01 10:54:00,78.0,-99.9,30.03,SE,126,17.0,21.0,-999,-99.99,,,-99.99,,2013-06-01 15:54:00,
2013-06-01 11:03:00,79.0,-99.9,30.03,SE,125,19.0,20.0,-999,-99.99,,,-99.99,,2013-06-01 16:03:00,
2013-06-01 11:13:00,79.0,-99.9,30.03,SE,127,18.0,22.0,-999,-99.99,,,-99.99,,2013-06-01 16:13:00,
2013-06-01 11:23:00,78.0,-99.9,30.03,SE,127,20.0,22.0,-999,-99.99,,,-99.99,,2013-06-01 16:23:00,
2013-06-01 11:33:00,79.0,-99.9,30.03,SE,127,18.0,22.0,-999,-99.99,,,-99.99,,2013-06-01 16:33:00,
2013-06-01 11:43:00,79.0,-99.9,30.04,SE,131,19.0,21.0,-999,-99.99,,,-99.99,,2013-06-01 16:43:00,
2013-06-01 11:53:00,79.0,-99.9,30.04,SE,133,20.0,22.0,-999,-99.99,,,-99.99,,2013-06-01 16:53:00,
2013-06-01 12:02:00,79.0,-99.9,30.04,SE,129,18.0,22.0,-999,-99.99,,,-99.99,,2013-06-01 17:02:00,
2013-06-01 12:12:00,79.0,-99.9,30.04,SE,130,18.0,22.0,-999,-99.99,,,-99.99,,2013-06-01 17:12:00,
2013-06-01 12:22:00,79.0,-99.9,30.04,SE,133,19.0,21.0,-999,-99.99,,,-99.99,,2013-06-01 17:22:00,
2013-06-01 12:32:00,79.0,-99.9,30.04,SE,132,19.0,21.0,-999,-99.99,,,-99.99,,2013-06-01 17:32:00,
2013-06-01 12:43:00,79.0,-99.9,30.04,SE,133,18.0,20.0,-999,-99.99,,,-99.99,,2013-06-01 17:43:00,
2013-06-01 12:52:00,79.0,-99.9,30.05,SE,135,18.0,20.0,-999,-99.99,,,-99.99,,2013-06-01 17:52:00,
2013-06-01 13:02:00,79.0,-99.9,30.05,SE,131,17.0,19.0,-999,-99.99,,,-99.99,,2013-06-01 18:02:00,
2013-06-01 13:12:00,79.0,-99.9,30.04,SE,132,17.0,19.0,-999,-99.99,,,-99.99,,2013-06-01 18:12:00,
2013-06-01 13:22:00,79.0,-99.9,30.05,SE,133,17.0,19.0,-999,-99.99,,,-99.99,,2013-06-01 18:22:00,
2013-06-01 13:32:00,79.0,-99.9,30.05,SE,131,17.0,19.0,-999,-99.99,,,-99.99,,2013-06-01 18:32:00,
2013-06-01 13:42:00,79.0,-99.9,30.05,SE,134,16.0,18.0,-999,-99.99,,,-99.99,,2013-06-01 18:42:00,
2013-06-01 13:52:00,79.0,-99.9,30.05,SE,129,17.0,18.0,-999,-99.99,,,-99.99,,2013-06-01 18:52:00,
2013-06-01 14:02:00,79.0,-99.9,30.05,SE,132,16.0,18.0,-999,-99.99,,,-99.99,,2013-06-01 19:02:00,
2013-06-01 14:12:00,79.0,-99.9,30.05,SE,132,16.0,18.0,-999,-99.99,,,-99.99,,2013-06-01 19:12:00,
2013-06-01 14:22:00,79.0,-99.9,30.04,SE,131,15.0,18.0,-999,-99.99,,,-99.99,,2013-06-01 19:22:00,
2013-06-01 14:32:00,79.0,-99.9,30.04,SE,133,15.0,18.0,-999,-99.99,,,-99.99,,2013-06-01 19:32:00,
2013-06-01 14:42:00,79.0,-99.9,30.04,SE,138,16.0,17.0,-999,-99.99,,,-99.99,,2013-06-01 19:42:00,
2013-06-01 14:53:00,79.0,-99.9,30.04,SE,133,16.0,17.0,-999,-99.99,,,-99.99,,2013-06-01 19:53:00,
2013-06-01 15:02:00,79.0,-99.9,30.03,SE,129,18.0,20.0,-999,-99.99,,,-99.99,,2013-06-01 20:02:00,
2013-06-01 15:12:00,79.0,-99.9,30.04,SE,136,16.0,18.0,-999,-99.99,,,-99.99,,2013-06-01 20:12:00,
2013-06-01 15:22:00,79.0,-99.9,30.03,SE,134,16.0,17.0,-999,-99.99,,,-99.99,,2013-06-01 20:22:00,
2013-06-01 15:32:00,79.0,-99.9,30.03,SE,137,15.0,17.0,-999,-99.99,,,-99.99,,2013-06-01 20:32:00,
2013-06-01 15:42:00,79.0,-99.9,30.03,SE,141,15.0,17.0,-999,-99.99,,,-99.99,,2013-06-01 20:42:00,
2013-06-01 15:52:00,79.0,-99.9,30.03,SE,142,15.0,17.0,-999,-99.99,,,-99.99,,2013-06-01 20:52:00,
2013-06-01 16:02:00,79.0,-99.9,30.02,SE,142,15.0,17.0,-999,-99.99,,,-99.99,,2013-06-01 21:02:00,
2013-06-01 16:12:00,79.0,-99.9,30.02,SE,143,15.0,18.0,-999,-99.99,,,-99.99,,2013-06-01 21:12:00,
2013-06-01 16:22:00,79.0,-99.9,30.01,SE,141,17.0,18.0,-999,-99.99,,,-99.99,,2013-06-01 21:22:00,
2013-06-01 16:33:00,79.0,-99.9,30.01,SE,145,15.0,18.0,-999,-99.99,,,-99.99,,2013-06-01 21:33:00,
2013-06-01 16:43:00,79.0,-99.9,30.00,SE,137,15.0,17.0,-999,-99.99,,,-99.99,,2013-06-01 21:43:00,
2013-06-01 16:54:00,79.0,-99.9,30.00,SE,140,15.0,16.0,-999,-99.99,,,-99.99,,2013-06-01 21:54:00,
2013-06-01 17:03:00,79.0,-99.9,30.00,SE,145,15.0,16.0,-999,-99.99,,,-99.99,,2013-06-01 22:03:00,
2013-06-01 17:12:00,79.0,-99.9,29.99,SE,142,15.0,16.0,-999,-99.99,,,-99.99,,2013-06-01 22:12:00,
2013-06-01 17:23:00,79.0,-99.9,30.00,SE,144,16.0,18.0,-999,-99.99,,,-99.99,,2013-06-01 22:23:00,
2013-06-01 17:33:00,79.0,-99.9,30.00,SSE,152,13.0,16.0,-999,-99.99,,,-99.99,,2013-06-01 22:33:00,
2013-06-01 17:42:00,79.0,-99.9,29.99,SSE,147,15.0,16.0,-999,-99.99,,,-99.99,,2013-06-01 22:42:00,
2013-06-01 17:53:00,79.0,-99.9,29.99,SSE,149,13.0,15.0,-999,-99.99,,,-99.99,,2013-06-01 22:53:00,
2013-06-01 18:02:00,79.0,-99.9,29.98,SE,143,14.0,15.0,-999,-99.99,,,-99.99,,2013-06-01 23:02:00,
2013-06-01 18:12:00,79.0,-99.9,29.99,SE,142,14.0,15.0,-999,-99.99,,,-99.99,,2013-06-01 23:12:00,
2013-06-01 18:22:00,79.0,-99.9,29.99,SE,139,15.0,16.0,-999,-99.99,,,-99.99,,2013-06-01 23:22:00,
2013-06-01 18:32:00,79.0,-99.9,29.99,SE,139,14.0,15.0,-999,-99.99,,,-99.99,,2013-06-01 23:32:00,
2013-06-01 18:42:00,79.0,-99.9,29.99,SE,141,13.0,14.0,-999,-99.99,,,-99.99,,2013-06-01 23:42:00,
2013-06-01 18:52:00,79.0,-99.9,29.99,SE,136,12.0,14.0,-999,-99.99,,,-99.99,,2013-06-01 23:52:00,
2013-06-01 19:02:00,79.0,-99.9,29.99,SE,135,12.0,14.0,-999,-99.99,,,-99.99,,2013-06-02 00:02:00,
2013-06-01 19:11:00,79.0,-99.9,29.99,SE,135,14.0,15.0,-999,-99.99,,,-99.99,,2013-06-02 00:11:00,
2013-06-01 19:22:00,79.0,-99.9,29.98,SE,134,15.0,17.0,-999,-99.99,,,-99.99,,2013-06-02 00:22:00,
2013-06-01 19:32:00,79.0,-99.9,29.98,SE,131,14.0,15.0,-999,-99.99,,,-99.99,,2013-06-02 00:32:00,
2013-06-01 19:42:00,79.0,-99.9,29.98,SE,136,13.0,16.0,-999,-99.99,,,-99.99,,2013-06-02 00:42:00,
2013-06-01 19:52:00,79.0,-99.9,29.98,SE,133,14.0,15.0,-999,-99.99,,,-99.99,,2013-06-02 00:52:00,
2013-06-01 20:02:00,78.0,-99.9,29.98,SE,135,13.0,14.0,-999,-99.99,,,-99.99,,2013-06-02 01:02:00,
2013-06-01 20:11:00,78.0,-99.9,29.98,SE,134,13.0,15.0,-999,-99.99,,,-99.99,,2013-06-02 01:11:00,
2013-06-01 20:22:00,78.0,-99.9,29.98,SE,136,13.0,15.0,-999,-99.99,,,-99.99,,2013-06-02 01:22:00,
2013-06-01 20:32:00,78.0,-99.9,29.98,SE,134,14.0,15.0,-999,-99.99,,,-99.99,,2013-06-02 01:32:00,
2013-06-01 20:42:00,78.0,-99.9,29.98,SE,141,14.0,16.0,-999,-99.99,,,-99.99,,2013-06-02 01:42:00,
2013-06-01 20:52:00,78.0,-99.9,29.98,SE,136,14.0,16.0,-999,-99.99,,,-99.99,,2013-06-02 01:52:00,
2013-06-01 21:02:00,79.0,-99.9,29.98,SE,139,12.0,15.0,-999,-99.99,,,-99.99,,2013-06-02 02:02:00,
2013-06-01 21:12:00,78.0,-99.9,29.99,SE,134,15.0,15.0,-999,-99.99,,,-99.99,,2013-06-02 02:12:00,
2013-06-01 21:22:00,78.0,-99.9,29.99,SE,135,14.0,15.0,-999,-99.99,,,-99.99,,2013-06-02 02:22:00,
2013-06-01 21:32:00,78.0,-99.9,29.99,SE,135,13.0,14.0,-999,-99.99,,,-99.99,,2013-06-02 02:32:00,
2013-06-01 21:42:00,78.0,-99.9,29.99,SE,142,12.0,14.0,-999,-99.99,,,-99.99,,2013-06-02 02:42:00,
2013-06-01 21:52:00,78.0,-99.9,29.99,SE,131,13.0,15.0,-999,-99.99,,,-99.99,,2013-06-02 02:52:00,
2013-06-01 22:02:00,78.0,-99.9,29.99,SE,134,15.0,17.0,-999,-99.99,,,-99.99,,2013-06-02 03:02:00,
2013-06-01 22:11:00,78.0,-99.9,29.99,SE,137,15.0,16.0,-999,-99.99,,,-99.99,,2013-06-02 03:11:00,
2013-06-01 22:22:00,79.0,-99.9,30.00,SE,139,13.0,16.0,-999,-99.99,,,-99.99,,2013-06-02 03:22:00,
2013-06-01 22:33:00,79.0,-99.9,30.00,SE,138,13.0,15.0,-999,-99.99,,,-99.99,,2013-06-02 03:33:00,
2013-06-01 22:43:00,78.0,-99.9,30.00,SE,133,13.0,15.0,-999,-99.99,,,-99.99,,2013-06-02 03:43:00,
2013-06-01 22:53:00,78.0,-99.9,30.01,SE,136,14.0,15.0,-999,-99.99,,,-99.99,,2013-06-02 03:53:00,
2013-06-01 23:03:00,79.0,-99.9,30.01,SE,138,14.0,15.0,-999,-99.99,,,-99.99,,2013-06-02 04:03:00,
2013-06-01 23:13:00,78.0,-99.9,30.01,SE,139,14.0,15.0,-999,-99.99,,,-99.99,,2013-06-02 04:13:00,
2013-06-01 23:23:00,79.0,-99.9,30.01,SE,140,13.0,15.0,-999,-99.99,,,-99.99,,2013-06-02 04:23:00,
2013-06-01 23:33:00,78.0,-99.9,30.02,SE,139,14.0,17.0,-999,-99.99,,,-99.99,,2013-06-02 04:33:00,
2013-06-01 23:43:00,79.0,-99.9,30.01,SE,141,14.0,18.0,-999,-99.99,,,-99.99,,2013-06-02 04:43:00,
2013-06-01 23:53:00,78.0,-99.9,30.01,SE,134,14.0,15.0,-999,-99.99,,,-99.99,,2013-06-02 04:53:00,